DMSP 5D-2 F13 DEB, 40678

Orbit data source: Space-Track

DMSP 5D-2 F13 DEB, 40678 is space debris in SSO originally from a launch on Fri, 24 Mar 1995 UTC launched from the Air Force Western Test Range (AFWTR). Debris objects in space refer to the collection of defunct objects orbiting the Earth. Examples of debris include non-operational satellites, rocket bodies, and fragments generated from explosions, collisions, or faulty payload assembly.

Loading next visibility...
Identifier
40678, 1995-015FS
Orbit
SSO
Country
Flag of USUS
Related business
Manufacturer
Unknown
Mission
Spacecraft
Bus & Motor
Unknown
Mass
Unknown
Launch date (UTC)
1995-03-24 (31 years ago)
Launch vehicle
Unknown
Launch site
Air Force Western Test Range (AFWTR)
Object type
Payload
Rocket body
Debris
Shape & HBR
Unknown shape, 0.1 m
Radar Cross Section
Small (<0.1 m²)

Expand to show TLE details & history
Last TLE update: 6 days ago

TLE from 6 days ago
0 DMSP 5D-2 F13 DEB
1 40678U 95015FS  26167.66586145  .00006322  00000-0  14350-2 0  9996
2 40678  98.5817 222.1120 0016040 159.3257 200.8592 14.56304602579624
Epoch: 2026-06-16T15:58Z
TLE epoch observation values (Epoch: 2026-06-16T15:58:50.429Z)
Latitude
-0.00002°
Longitude
77.46726°
Altitude
718.721 km
Speed
7.49 km/s
True Right ascension
14h 48m 26s
True Declination
0° 00' 00"
Sunlit
Object was in full shadow at epoch
Visualization orbit readout
Latitude
Unknown
Longitude
Unknown
Altitude
Unknown
Speed
Unknown
Apparent Right ascension
Unknown
Apparent Declination
Unknown
Sunlit
N/A
Visualization observer readout
Local Sidereal Time
21:41:49
Azimuth
Unknown
Elevation
Unknown
Doppler factor
Unknown
Orbital elements
Apogee altitude
713.592 km
Perigee altitude
690.878 km
Semi-major axis
7,080.372 km
Eccentricity
0.0016
Inclination
98.5817°
RAAN
222.112°
Arg. of periapsis
159.3257°
True anomaly
200.79387°
Mean anomaly
200.8592°
Eccentric anomaly
200.82653°
Mean motion
3.643 °/min
Orbital period
98.82 mins
BSTAR
0.001435

Documentation

Showing up to 5 results
|